Find Starlink 31057

NORAD ID: 58545 Int'l Des: 2023-192 Owner: SPXS Country: US Constellation: starlink operational
LEOCIRCULAR

Live Position

Loading 3D Globe...

About Starlink 31057

Description loading...

Upcoming Passes

Passes for default location (London). Set your location on the main map for personalized predictions.

Altitude History

Loading altitude history...

Two-Line Element Set

1 58545U 23192Q 26126.40650605 .00003487 00000-0 11435-3 0 9996
2 58545 53.1597 154.5403 0001162 73.0853 287.0277 15.34380436134825
Epoch: May 6, 2026 • Age: 19 hours

Current Status

Altitude 468.2 km
Velocity 7.64 km/s
Sub-Earth Point 51.51°N, 38.19°W
Launch Date Dec 8, 2023
Age 2.4 years
Type internet

Technical Details

Classification Payload
Mass 730.00 kg
Dry Mass 700.00 kg
Total Mass 730.00 kg
Length 0.30 m
Diameter 4.10 m
Span 29.00 m
Shape Box + pan
Manufacturer SPXS
Bus Type Starlink V2M
Phase Status In Orbit
Owner/State SPXS/US

Most Searched